Regional Weather Roundup
Issued by NWS

Home | Current Version | Previous Version | Graphics & Text | Print | Product List | Glossary On
Versions: 1 2 3 4 5 6 7 8 9 10 11 12 13 14 15 16 17 18 19 20 21 22 23 24 25 26 27
000
ASUS45 KBOI 200210
RWRID

IDAHO REGIONAL WEATHER ROUNDUP
NATIONAL WEATHER SERVICE BOISE ID
800 PM MDT THU APR 19 2018

NOTE: "FAIR" INDICATES FEW OR NO CLOUDS BELOW 12000 FEET
WITH NO SIGNIFICANT WEATHER AND/OR OBSTRUCTIONS TO VISIBILITY

IDZ012-014-200300-
SOUTHWEST IDAHO


CITY           SKY/WX    TMP DP  RH WIND       PRES   REMARKS
BOISE          PTCLDY    64  29  26 NW20G30   29.89R
CALDWELL       PTCLDY    65  28  24 NW17      29.92R
MOUNTAIN HOME  CLOUDY    57  36  45 S3        29.93R
$$

IDZ016-017-200300-
SOUTHCENTRAL IDAHO


CITY           SKY/WX    TMP DP  RH WIND       PRES   REMARKS
BURLEY         CLOUDY    53  30  41 W14G20    29.85S
JEROME         CLOUDY    58  28  32 NW12      29.89R
TWIN FALLS     CLOUDY    54  32  43 W14       29.90R
$$

IDZ019>023-200300-
SOUTHEAST IDAHO


CITY           SKY/WX    TMP DP  RH WIND       PRES   REMARKS
IDAHO FALLS    MOCLDY    56  21  25 N18G24    29.85S
POCATELLO      CLOUDY    60  20  21 N15G22    29.84R
REXBURG        MOCLDY    55  22  27 N13G23    29.86S
$$

IDZ006-010-011-018-031-032-200300-
CENTRAL IDAHO MOUNTAINS


CITY           SKY/WX    TMP DP  RH WIND       PRES   REMARKS
MCCALL         CLEAR     50  25  37 NW14      30.02R
STANLEY          N/A     47  23  38 E3        30.00R
SALMON         CLOUDY    58  23  26 N10G21    29.97R
CHALLIS        CLOUDY    55  23  28 E16G25    29.96R
$$

IDZ002-004-006-007-026-200300-
NORTHERN IDAHO


CITY           SKY/WX    TMP DP  RH WIND       PRES   REMARKS
LEWISTON       CLEAR     62  31  31 W7        30.10R
LOWELL           N/A     55  43  63 CALM      30.05R
COEUR D`ALENE  CLEAR     58  30  34 W10       30.09S
MULLAN PASS    PTCLDY    41  22  46 VRB6      30.11R
$$




USA.gov is the U.S. government's official web portal to all federal, state and local government web resources and services.